,,Stat6,,Stat2,,Stat8,,Stat9,,Stat10,,Wind1,,Wind1,
time,status,PA1M_AVG,status,PR1M_SUM,status,RH1M_AVG,status,SR1M_AVG,status,TA1M_AVG,status,W1dAve1m,status,W1sAve1m,
2004-10-26, 00:00:00,VALID,918.464,VALID,0,VALID,95.2343,VALID,-0.0339617,VALID,20.6687,VALID,94,VALID,1.03008,
2004-10-26, 00:01:00,VALID,918.47,VALID,0,VALID,95.439,VALID,-0.0169808,VALID,20.6385,VALID,106,VALID,0.96733,
2004-10-26, 00:02:00,VALID,918.485,VALID,0,VALID,95.6768,VALID,0,VALID,20.6157,VALID,106,VALID,0.654762,
2004-10-26, 00:03:00,VALID,918.44,VALID,0,VALID,95.8052,VALID,-0.0169808,VALID,20.5769,VALID,94,VALID,1.86701,
2004-10-26, 00:04:00,VALID,918.486,VALID,0,VALID,95.823,VALID,0,VALID,20.5605,VALID,87,VALID,2.68423,
2004-10-26, 00:05:00,VALID,918.51,VALID,0.2,VALID,95.907,VALID,-0.0169808,VALID,20.5777,VALID,52,VALID,2.51526,
2004-10-26, 00:06:00,VALID,918.527,VALID,0,VALID,95.8014,VALID,-0.0169808,VALID,20.5575,VALID,88,VALID,1.93864,
2004-10-26, 00:07:00,VALID,918.544,VALID,0,VALID,95.9426,VALID,-0.0169808,VALID,20.5476,VALID,74,VALID,0.999132,
2004-10-26, 00:08:00,VALID,918.523,VALID,0,VALID,95.9794,VALID,-0.0169808,VALID,20.5387,VALID,129,VALID,1.02102,
2004-10-26, 00:09:00,VALID,918.478,VALID,0,VALID,96.1041,VALID,0,VALID,20.5126,VALID,137,VALID,0.931597,
2004-10-26, 00:10:00,VALID,918.454,VALID,0,VALID,96.2694,VALID,-0.0339617,VALID,20.4959,VALID,155,VALID,0.6008,
2004-10-26, 00:11:00,VALID,918.424,VALID,0,VALID,96.2999,VALID,0,VALID,20.4768,VALID,152,VALID,1.48887,
2004-10-26, 00:12:00,VALID,918.398,VALID,0,VALID,96.1829,VALID,-0.0169808,VALID,20.4741,VALID,113,VALID,1.87277,
2004-10-26, 00:13:00,VALID,918.383,VALID,0,VALID,96.3266,VALID,-0.0169808,VALID,20.4703,VALID,127,VALID,1.24907,
2004-10-26, 00:14:00,VALID,918.365,VALID,0,VALID,96.2732,VALID,0,VALID,20.4542,VALID,129,VALID,1.41082,
2004-10-26, 00:15:00,VALID,918.354,VALID,0,VALID,96.4359,VALID,0,VALID,20.451,VALID,113,VALID,0.941051,
2004-10-26, 00:16:00,VALID,918.331,VALID,0.2,VALID,96.5351,VALID,-0.0339617,VALID,20.4351,VALID,128,VALID,1.17664,
2004-10-26, 00:17:00,VALID,918.292,VALID,0,VALID,96.6763,VALID,-0.0339617,VALID,20.4259,VALID,145,VALID,1.89222,
2004-10-26, 00:18:00,VALID,918.273,VALID,0,VALID,96.7717,VALID,0,VALID,20.4125,VALID,134,VALID,1.67507,
2004-10-26, 00:19:00,VALID,918.255,VALID,0,VALID,96.9395,VALID,-0.0169808,VALID,20.3834,VALID,141,VALID,1.76836,
2004-10-26, 00:20:00,VALID,918.214,VALID,0.2,VALID,97.0298,VALID,0,VALID,20.367,VALID,142,VALID,1.42475,
2004-10-26, 00:21:00,VALID,918.15,VALID,0,VALID,97.2027,VALID,0,VALID,20.3384,VALID,143,VALID,1.95985,
2004-10-26, 00:22:00,VALID,918.14,VALID,0,VALID,97.1798,VALID,-0.0169808,VALID,20.3161,VALID,137,VALID,1.57107,
2004-10-26, 00:23:00,VALID,918.119,VALID,0.2,VALID,97.2256,VALID,0,VALID,20.3126,VALID,139,VALID,1.79076,
2004-10-26, 00:24:00,VALID,918.094,VALID,0,VALID,97.2409,VALID,-0.0169808,VALID,20.3099,VALID,138,VALID,1.11254,
2004-10-26, 00:25:00,VALID,918.07,VALID,0,VALID,97.424,VALID,0,VALID,20.2935,VALID,115,VALID,0.819531,
2004-10-26, 00:26:00,VALID,918.052,VALID,0,VALID,97.4952,VALID,-0.0849042,VALID,20.2771,VALID,160,VALID,0.889898,
2004-10-26, 00:27:00,VALID,918.04,VALID,0,VALID,97.6249,VALID,-0.0339617,VALID,20.2736,VALID,144,VALID,1.38184,
2004-10-26, 00:28:00,VALID,918.026,VALID,0.2,VALID,97.7838,VALID,-0.0339617,VALID,20.248,VALID,134,VALID,1.07722,
2004-10-26, 00:29:00,VALID,918.025,VALID,0,VALID,97.869,VALID,-0.0169808,VALID,20.2254,VALID,137,VALID,1.31517,
2004-10-26, 00:30:00,VALID,918.037,VALID,0,VALID,97.925,VALID,-0.0339617,VALID,20.2058,VALID,126,VALID,1.11523,
2004-10-26, 00:31:00,VALID,918.071,VALID,0.2,VALID,98.0102,VALID,-0.0339617,VALID,20.203,VALID,78,VALID,0.931463,
2004-10-26, 00:32:00,VALID,918.087,VALID,0,VALID,98.0064,VALID,-0.0339617,VALID,20.1998,VALID,93,VALID,1.53942,
2004-10-26, 00:33:00,VALID,918.079,VALID,0,VALID,97.7686,VALID,-0.0169808,VALID,20.1966,VALID,122,VALID,2.08683,
2004-10-26, 00:34:00,VALID,918.061,VALID,0.2,VALID,97.4469,VALID,-0.0339617,VALID,20.2254,VALID,134,VALID,2.23819,
2004-10-26, 00:35:00,VALID,918.043,VALID,0,VALID,97.5613,VALID,-0.0169808,VALID,20.2579,VALID,76,VALID,0.992551,
2004-10-26, 00:36:00,VALID,918.047,VALID,0,VALID,97.4329,VALID,0,VALID,20.2482,VALID,93,VALID,1.87388,
2004-10-26, 00:37:00,VALID,918.024,VALID,0,VALID,97.3604,VALID,-0.0339617,VALID,20.2318,VALID,94,VALID,1.6769,
2004-10-26, 00:38:00,VALID,918.018,VALID,0,VALID,96.9789,VALID,-0.0339617,VALID,20.2415,VALID,100,VALID,2.77871,
2004-10-26, 00:39:00,VALID,918.014,VALID,0,VALID,96.6407,VALID,-0.0169808,VALID,20.2997,VALID,88,VALID,2.34189,
2004-10-26, 00:40:00,VALID,918.01,VALID,0.2,VALID,96.6343,VALID,-0.0339617,VALID,20.3126,VALID,68,VALID,1.86559,
2004-10-26, 00:41:00,VALID,917.994,VALID,0,VALID,96.4448,VALID,0,VALID,20.3158,VALID,95,VALID,2.16578,
2004-10-26, 00:42:00,VALID,917.959,VALID,0,VALID,96.4194,VALID,-0.0339617,VALID,20.332,VALID,44,VALID,2.125,
2004-10-26, 00:43:00,VALID,917.968,VALID,0,VALID,96.2109,VALID,0,VALID,20.361,VALID,82,VALID,2.31938,
2004-10-26, 00:44:00,VALID,917.943,VALID,0,VALID,96.01,VALID,0,VALID,20.3575,VALID,90,VALID,1.98609,
2004-10-26, 00:45:00,VALID,917.923,VALID,0.2,VALID,96.2452,VALID,-0.0339617,VALID,20.3583,VALID,76,VALID,1.82736,
2004-10-26, 00:46:00,VALID,917.913,VALID,0,VALID,96.2592,VALID,-0.0679233,VALID,20.3265,VALID,75,VALID,1.9481,
2004-10-26, 00:47:00,VALID,917.894,VALID,0,VALID,96.1015,VALID,-0.0509425,VALID,20.3295,VALID,106,VALID,1.54167,
2004-10-26, 00:48:00,VALID,917.873,VALID,0,VALID,95.8357,VALID,-0.0339617,VALID,20.3462,VALID,89,VALID,1.66933,
2004-10-26, 00:49:00,VALID,917.864,VALID,0,VALID,95.5776,VALID,-0.0509425,VALID,20.3712,VALID,81,VALID,1.85483,
2004-10-26, 00:50:00,VALID,917.854,VALID,0,VALID,95.687,VALID,-0.0509425,VALID,20.4075,VALID,89,VALID,0.93859,
2004-10-26, 00:51:00,VALID,917.859,VALID,0,VALID,95.8141,VALID,-0.0679233,VALID,20.3911,VALID,88,VALID,0.997569,
2004-10-26, 00:52:00,VALID,917.836,VALID,0,VALID,95.7162,VALID,-0.101885,VALID,20.3849,VALID,91,VALID,1.98746,
2004-10-26, 00:53:00,VALID,917.832,VALID,0,VALID,95.8116,VALID,-0.0679233,VALID,20.3919,VALID,68,VALID,1.45998,
2004-10-26, 00:54:00,VALID,917.81,VALID,0,VALID,95.8701,VALID,-0.0679233,VALID,20.3747,VALID,69,VALID,1.83687,
2004-10-26, 00:55:00,VALID,917.791,VALID,0,VALID,96.0341,VALID,-0.0849042,VALID,20.3618,VALID,44,VALID,1.39044,
2004-10-26, 00:56:00,VALID,917.765,VALID,0.2,VALID,95.9794,VALID,-0.0849042,VALID,20.3524,VALID,63,VALID,1.42206,
2004-10-26, 00:57:00,VALID,917.764,VALID,0,VALID,95.9489,VALID,-0.101885,VALID,20.3462,VALID,77,VALID,1.52489,
2004-10-26, 00:58:00,VALID,917.747,VALID,0,VALID,95.8332,VALID,-0.0849042,VALID,20.3494,VALID,115,VALID,1.33918,
2004-10-26, 00:59:00,VALID,917.726,VALID,0,VALID,95.6412,VALID,-0.0849042,VALID,20.3392,VALID,105,VALID,1.73457,
2004-10-26, 01:00:00,VALID,917.699,VALID,0,VALID,95.3805,VALID,-0.0169808,VALID,20.371,VALID,121,VALID,1.76758,
2004-10-26, 01:01:00,VALID,917.678,VALID,0,VALID,95.2813,VALID,0.0169808,VALID,20.3861,VALID,97,VALID,1.26935,
2004-10-26, 01:02:00,VALID,917.638,VALID,0,VALID,95.2966,VALID,0.0339617,VALID,20.3995,VALID,109,VALID,1.49543,
2004-10-26, 01:03:00,VALID,917.611,VALID,0,VALID,95.2267,VALID,0,VALID,20.4028,VALID,120,VALID,1.35193,
2004-10-26, 01:04:00,VALID,917.573,VALID,0,VALID,95.3335,VALID,0.0169808,VALID,20.396,VALID,126,VALID,1.63263,
2004-10-26, 01:05:00,VALID,917.562,VALID,0.2,VALID,95.4174,VALID,0.0509425,VALID,20.3933,VALID,123,VALID,1.4401,
2004-10-26, 01:06:00,VALID,917.509,VALID,0,VALID,95.2394,VALID,0.0169808,VALID,20.3834,VALID,123,VALID,2.0665,
2004-10-26, 01:07:00,VALID,917.466,VALID,0,VALID,95.2241,VALID,0.0679233,VALID,20.3928,VALID,111,VALID,1.41543,
2004-10-26, 01:08:00,VALID,917.433,VALID,0,VALID,94.8579,VALID,0.0169808,VALID,20.3955,VALID,94,VALID,1.44168,
2004-10-26, 01:09:00,VALID,917.394,VALID,0,VALID,95.1135,VALID,0.0339617,VALID,20.4157,VALID,133,VALID,1.29942,
2004-10-26, 01:10:00,VALID,917.368,VALID,0,VALID,95.0486,VALID,0.0679233,VALID,20.3928,VALID,125,VALID,2.01211,
2004-10-26, 01:11:00,VALID,917.376,VALID,0,VALID,95.1923,VALID,0,VALID,20.3769,VALID,90,VALID,1.60309,
2004-10-26, 01:12:00,VALID,917.346,VALID,0.2,VALID,95.0016,VALID,0.0339617,VALID,20.3638,VALID,88,VALID,2.30251,
2004-10-26, 01:13:00,VALID,917.316,VALID,0,VALID,94.2768,VALID,0.0169808,VALID,20.3834,VALID,80,VALID,2.63281,
2004-10-26, 01:14:00,VALID,917.287,VALID,0,VALID,94.3976,VALID,0.0169808,VALID,20.4515,VALID,69,VALID,2.30354,
2004-10-26, 01:15:00,VALID,917.227,VALID,0,VALID,94.4446,VALID,0,VALID,20.451,VALID,131,VALID,1.64081,
2004-10-26, 01:16:00,VALID,917.18,VALID,0,VALID,94.7587,VALID,0.0339617,VALID,20.4418,VALID,42,VALID,1.68187,
2004-10-26, 01:17:00,VALID,917.188,VALID,0,VALID,94.7612,VALID,0.0169808,VALID,20.4092,VALID,80,VALID,1.19288,
2004-10-26, 01:18:00,VALID,917.151,VALID,0.2,VALID,94.9672,VALID,0.0339617,VALID,20.3968,VALID,98,VALID,1.26042,
2004-10-26, 01:19:00,VALID,917.115,VALID,0,VALID,95.0639,VALID,0.0339617,VALID,20.3605,VALID,74,VALID,1.32102,
2004-10-26, 01:20:00,VALID,917.107,VALID,0,VALID,95.2826,VALID,0.0169808,VALID,20.3218,VALID,65,VALID,1.04342,
2004-10-26, 01:21:00,VALID,917.079,VALID,0,VALID,95.2673,VALID,0,VALID,20.3094,VALID,133,VALID,1.21987,
2004-10-26, 01:22:00,VALID,917.025,VALID,0,VALID,95.1872,VALID,0.0339617,VALID,20.2897,VALID,99,VALID,2.02396,
2004-10-26, 01:23:00,VALID,917.028,VALID,0.2,VALID,94.7663,VALID,0,VALID,20.3188,VALID,85,VALID,1.74236,
2004-10-26, 01:24:00,VALID,917.021,VALID,0,VALID,95.0168,VALID,0.0679233,VALID,20.3446,VALID,58,VALID,1.79192,
2004-10-26, 01:25:00,VALID,917.005,VALID,0,VALID,95.3831,VALID,0.0679233,VALID,20.3088,VALID,58,VALID,1.87445,
2004-10-26, 01:26:00,VALID,917.003,VALID,0,VALID,95.6247,VALID,0.0509425,VALID,20.2604,VALID,73,VALID,1.63263,
2004-10-26, 01:27:00,VALID,916.967,VALID,0,VALID,95.6793,VALID,0.0679233,VALID,20.2311,VALID,83,VALID,1.94404,
2004-10-26, 01:28:00,VALID,916.9,VALID,0.2,VALID,95.9324,VALID,0.0509425,VALID,20.2095,VALID,109,VALID,1.69336,
2004-10-26, 01:29:00,VALID,916.84,VALID,0,VALID,96.0697,VALID,0,VALID,20.164,VALID,88,VALID,2.11347,
2004-10-26, 01:30:00,VALID,916.816,VALID,0,VALID,96.0392,VALID,0.0169808,VALID,20.1379,VALID,88,VALID,2.20912,
2004-10-26, 01:31:00,VALID,916.773,VALID,0.2,VALID,95.7467,VALID,0,VALID,20.1541,VALID,66,VALID,2.85084,
2004-10-26, 01:32:00,VALID,916.759,VALID,0,VALID,95.8586,VALID,0.0509425,VALID,20.1571,VALID,61,VALID,2.28688,
2004-10-26, 01:33:00,VALID,916.686,VALID,0,VALID,94.9316,VALID,0.0169808,VALID,20.1769,VALID,91,VALID,2.46819,
2004-10-26, 01:34:00,VALID,916.686,VALID,0,VALID,94.8592,VALID,0.0679233,VALID,20.2311,VALID,87,VALID,1.63434,
2004-10-26, 01:35:00,VALID,916.664,VALID,0.2,VALID,94.7193,VALID,0,VALID,20.245,VALID,85,VALID,1.67517,
2004-10-26, 01:36:00,VALID,916.615,VALID,0,VALID,94.4103,VALID,0.0509425,VALID,20.2577,VALID,72,VALID,2.3349,
2004-10-26, 01:37:00,VALID,916.597,VALID,0,VALID,94.4599,VALID,0.0339617,VALID,20.2736,VALID,48,VALID,1.91908,
2004-10-26, 01:38:00,VALID,916.584,VALID,0.2,VALID,94.8172,VALID,0.0679233,VALID,20.2741,VALID,67,VALID,2.07344,
2004-10-26, 01:39:00,VALID,916.578,VALID,0,VALID,94.8808,VALID,0.0169808,VALID,20.2318,VALID,98,VALID,1.73761,
2004-10-26, 01:40:00,VALID,916.531,VALID,0,VALID,95.1809,VALID,0,VALID,20.1998,VALID,100,VALID,1.26544,
2004-10-26, 01:41:00,VALID,916.517,VALID,0.2,VALID,95.186,VALID,0,VALID,20.1573,VALID,106,VALID,1.65527,
2004-10-26, 01:42:00,VALID,916.497,VALID,0,VALID,95.1732,VALID,0.0169808,VALID,20.1573,VALID,120,VALID,1.48456,
2004-10-26, 01:43:00,VALID,916.487,VALID,0,VALID,95.556,VALID,0,VALID,20.1514,VALID,145,VALID,1.3931,
2004-10-26, 01:44:00,VALID,916.47,VALID,0,VALID,95.8904,VALID,0,VALID,20.1315,VALID,113,VALID,0.779615,
2004-10-26, 01:45:00,VALID,916.434,VALID,0,VALID,96.085,VALID,0.0169808,VALID,20.0967,VALID,115,VALID,0.967297,
2004-10-26, 01:46:00,VALID,916.411,VALID,0.2,VALID,96.0863,VALID,0,VALID,20.0649,VALID,102,VALID,1.17472,
2004-10-26, 01:47:00,VALID,916.413,VALID,0,VALID,96.1486,VALID,0,VALID,20.051,VALID,67,VALID,0.834872,
2004-10-26, 01:48:00,VALID,916.412,VALID,0,VALID,96.3393,VALID,0,VALID,20.0483,VALID,67,VALID,0.794744,
2004-10-26, 01:49:00,VALID,916.432,VALID,0,VALID,96.277,VALID,0,VALID,20.0321,VALID,127,VALID,1.12445,
2004-10-26, 01:50:00,VALID,916.425,VALID,0,VALID,96.4436,VALID,0,VALID,20.0127,VALID,134,VALID,1.37411,
2004-10-26, 01:51:00,VALID,916.414,VALID,0,VALID,96.2605,VALID,0,VALID,19.9926,VALID,129,VALID,1.4026,
2004-10-26, 01:52:00,VALID,916.421,VALID,0,VALID,96.3584,VALID,0,VALID,20.0162,VALID,164,VALID,1.00675,
2004-10-26, 01:53:00,VALID,916.426,VALID,0.2,VALID,96.4944,VALID,0,VALID,20.013,VALID,141,VALID,1.21328,
2004-10-26, 01:54:00,VALID,916.413,VALID,0,VALID,96.6369,VALID,0,VALID,19.9968,VALID,180,VALID,0.942951,
2004-10-26, 01:55:00,VALID,916.394,VALID,0,VALID,96.7157,VALID,0,VALID,20.0003,VALID,144,VALID,0.738376,
2004-10-26, 01:56:00,VALID,916.386,VALID,0,VALID,96.8696,VALID,-0.0169808,VALID,19.9611,VALID,86,VALID,0.721112,
2004-10-26, 01:57:00,VALID,916.381,VALID,0,VALID,96.8657,VALID,0,VALID,19.9454,VALID,134,VALID,0.968229,
2004-10-26, 01:58:00,VALID,916.389,VALID,0.2,VALID,96.9446,VALID,-0.0339617,VALID,19.9357,VALID,143,VALID,0.936821,
2004-10-26, 01:59:00,VALID,916.405,VALID,0,VALID,97.059,VALID,0,VALID,19.926,VALID,98,VALID,1.05344,
2004-10-26, 02:00:00,VALID,916.386,VALID,0,VALID,96.8009,VALID,0,VALID,19.9124,VALID,113,VALID,1.22622,
2004-10-26, 02:01:00,VALID,916.39,VALID,0,VALID,96.628,VALID,0,VALID,19.9253,VALID,73,VALID,1.00465,
2004-10-26, 02:02:00,VALID,916.383,VALID,0,VALID,96.5682,VALID,0,VALID,19.9546,VALID,65,VALID,1.22832,
2004-10-26, 02:03:00,VALID,916.368,VALID,0.2,VALID,96.4715,VALID,0.0339617,VALID,19.971,VALID,87,VALID,0.804688,
2004-10-26, 02:04:00,VALID,916.326,VALID,0,VALID,96.3787,VALID,0,VALID,19.9737,VALID,41,VALID,2.16584,
2004-10-26, 02:05:00,VALID,916.317,VALID,0,VALID,96.1333,VALID,0,VALID,20.0036,VALID,67,VALID,1.31696,
2004-10-26, 02:06:00,VALID,916.264,VALID,0,VALID,96.071,VALID,0.0169808,VALID,20.0227,VALID,43,VALID,0.978981,
2004-10-26, 02:07:00,VALID,916.231,VALID,0,VALID,95.8548,VALID,-0.0169808,VALID,20.0257,VALID,93,VALID,1.42168,
2004-10-26, 02:08:00,VALID,916.216,VALID,0,VALID,95.6997,VALID,0,VALID,20.0388,VALID,83,VALID,1.82552,
2004-10-26, 02:09:00,VALID,916.169,VALID,0.2,VALID,95.3792,VALID,0,VALID,20.0647,VALID,112,VALID,1.60778,
2004-10-26, 02:10:00,VALID,916.133,VALID,0,VALID,95.4174,VALID,0,VALID,20.087,VALID,91,VALID,1.86309,
2004-10-26, 02:11:00,VALID,916.11,VALID,0,VALID,95.2152,VALID,0,VALID,20.0997,VALID,75,VALID,1.38826,
2004-10-26, 02:12:00,VALID,916.091,VALID,0,VALID,95.4441,VALID,0,VALID,20.1193,VALID,54,VALID,1.45549,
2004-10-26, 02:13:00,VALID,916.072,VALID,0,VALID,95.4517,VALID,0.0339617,VALID,20.0965,VALID,81,VALID,1.29578,
2004-10-26, 02:14:00,VALID,916.037,VALID,0,VALID,95.2521,VALID,0.0169808,VALID,20.0873,VALID,108,VALID,1.62798,
2004-10-26, 02:15:00,VALID,916.027,VALID,0,VALID,95.322,VALID,0,VALID,20.0972,VALID,100,VALID,1.89753,
2004-10-26, 02:16:00,VALID,915.971,VALID,0,VALID,94.896,VALID,0,VALID,20.1061,VALID,65,VALID,2.6756,
2004-10-26, 02:17:00,VALID,915.95,VALID,0,VALID,94.1674,VALID,0,VALID,20.1809,VALID,90,VALID,1.67472,
2004-10-26, 02:18:00,VALID,915.94,VALID,0,VALID,93.7618,VALID,-0.0169808,VALID,20.2264,VALID,83,VALID,1.80659,
2004-10-26, 02:19:00,VALID,915.915,VALID,0,VALID,92.8487,VALID,0.0169808,VALID,20.2969,VALID,84,VALID,2.38681,
2004-10-26, 02:20:00,VALID,915.885,VALID,0,VALID,93.1641,VALID,0.0339617,VALID,20.3583,VALID,92,VALID,1.50231,
2004-10-26, 02:21:00,VALID,915.848,VALID,0,VALID,93.4935,VALID,0,VALID,20.3484,VALID,104,VALID,1.3776,
2004-10-26, 02:22:00,VALID,915.863,VALID,0,VALID,93.2747,VALID,-0.0169808,VALID,20.3325,VALID,109,VALID,1.88058,
2004-10-26, 02:23:00,VALID,915.86,VALID,0,VALID,93.5685,VALID,0,VALID,20.3454,VALID,82,VALID,1.57829,
2004-10-26, 02:24:00,VALID,915.815,VALID,0,VALID,93.3014,VALID,0,VALID,20.3134,VALID,78,VALID,2.94196,
2004-10-26, 02:25:00,VALID,915.8,VALID,0,VALID,93.1107,VALID,0.0169808,VALID,20.3292,VALID,80,VALID,1.99312,
2004-10-26, 02:26:00,VALID,915.766,VALID,0,VALID,92.8437,VALID,0,VALID,20.3581,VALID,47,VALID,2.82603,
2004-10-26, 02:27:00,VALID,915.788,VALID,0,VALID,92.9963,VALID,0,VALID,20.3879,VALID,89,VALID,1.29802,
2004-10-26, 02:28:00,VALID,915.781,VALID,0,VALID,93.2442,VALID,-0.0169808,VALID,20.3559,VALID,80,VALID,1.71224,
2004-10-26, 02:29:00,VALID,915.768,VALID,0,VALID,92.6478,VALID,0,VALID,20.3424,VALID,34,VALID,2.50577,
2004-10-26, 02:30:00,VALID,915.778,VALID,0.2,VALID,92.6593,VALID,-0.0509425,VALID,20.3882,VALID,84,VALID,1.72292,
2004-10-26, 02:31:00,VALID,915.791,VALID,0,VALID,92.6593,VALID,-0.0849042,VALID,20.379,VALID,89,VALID,2.05523,
2004-10-26, 02:32:00,VALID,915.807,VALID,0,VALID,92.4202,VALID,-0.0339617,VALID,20.3685,VALID,61,VALID,2.32485,
2004-10-26, 02:33:00,VALID,915.801,VALID,0,VALID,92.6059,VALID,-0.0509425,VALID,20.3755,VALID,51,VALID,1.32937,
2004-10-26, 02:34:00,VALID,915.802,VALID,0,VALID,91.9624,VALID,-0.0849042,VALID,20.3564,VALID,97,VALID,1.524,
2004-10-26, 02:35:00,VALID,915.819,VALID,0,VALID,90.9655,VALID,-0.0509425,VALID,20.3852,VALID,92,VALID,1.56523,
2004-10-26, 02:36:00,VALID,915.788,VALID,0,VALID,90.9286,VALID,-0.0849042,VALID,20.4885,VALID,30,VALID,2.01635,
2004-10-26, 02:37:00,VALID,915.791,VALID,0,VALID,91.5771,VALID,-0.0509425,VALID,20.5117,VALID,131,VALID,1.33125,
2004-10-26, 02:38:00,VALID,915.785,VALID,0,VALID,91.5899,VALID,-0.101885,VALID,20.4791,VALID,140,VALID,1.94093,
2004-10-26, 02:39:00,VALID,915.779,VALID,0,VALID,92.2803,VALID,-0.101885,VALID,20.4632,VALID,136,VALID,0.99535,
2004-10-26, 02:40:00,VALID,915.742,VALID,0,VALID,92.4291,VALID,-0.0679233,VALID,20.3986,VALID,135,VALID,1.61597,
2004-10-26, 02:41:00,VALID,915.715,VALID,0,VALID,92.04,VALID,-0.0849042,VALID,20.3693,VALID,117,VALID,1.91334,
2004-10-26, 02:42:00,VALID,915.699,VALID,0,VALID,91.4017,VALID,-0.101885,VALID,20.3887,VALID,89,VALID,1.67168,
2004-10-26, 02:43:00,VALID,915.673,VALID,0,VALID,91.0838,VALID,-0.0849042,VALID,20.4565,VALID,137,VALID,2.09524,
2004-10-26, 02:44:00,VALID,915.641,VALID,0,VALID,90.8142,VALID,-0.0679233,VALID,20.5114,VALID,86,VALID,2.69774,
2004-10-26, 02:45:00,VALID,915.624,VALID,0,VALID,90.9032,VALID,-0.0849042,VALID,20.5499,VALID,108,VALID,1.48217,
2004-10-26, 02:46:00,VALID,915.624,VALID,0,VALID,91.291,VALID,-0.101885,VALID,20.5338,VALID,103,VALID,1.3817,
2004-10-26, 02:47:00,VALID,915.591,VALID,0,VALID,91.45,VALID,-0.0849042,VALID,20.4923,VALID,80,VALID,2.14863,
2004-10-26, 02:48:00,VALID,915.593,VALID,0,VALID,90.537,VALID,-0.0509425,VALID,20.505,VALID,82,VALID,2.621,
2004-10-26, 02:49:00,VALID,915.609,VALID,0,VALID,90.6756,VALID,-0.0849042,VALID,20.5728,VALID,84,VALID,3.07969,
2004-10-26, 02:50:00,VALID,915.574,VALID,0,VALID,90.8396,VALID,-0.101885,VALID,20.5661,VALID,72,VALID,2.32867,
2004-10-26, 02:51:00,VALID,915.573,VALID,0,VALID,90.9808,VALID,-0.101885,VALID,20.5596,VALID,88,VALID,1.7113,
2004-10-26, 02:52:00,VALID,915.595,VALID,0,VALID,90.9426,VALID,-0.0849042,VALID,20.5462,VALID,73,VALID,2.61446,
2004-10-26, 02:53:00,VALID,915.611,VALID,0,VALID,91.0558,VALID,-0.0679233,VALID,20.5534,VALID,92,VALID,2.78478,
2004-10-26, 02:54:00,VALID,915.578,VALID,0,VALID,90.9223,VALID,-0.0849042,VALID,20.5499,VALID,37,VALID,2.78201,
2004-10-26, 02:55:00,VALID,915.581,VALID,0,VALID,90.4352,VALID,-0.0169808,VALID,20.5887,VALID,60,VALID,2.40607,
2004-10-26, 02:56:00,VALID,915.595,VALID,0,VALID,90.6858,VALID,-0.0679233,VALID,20.6148,VALID,70,VALID,1.76738,
2004-10-26, 02:57:00,VALID,915.598,VALID,0,VALID,91.1041,VALID,-0.101885,VALID,20.5825,VALID,65,VALID,1.07715,
2004-10-26, 02:58:00,VALID,915.616,VALID,0,VALID,91.5657,VALID,-0.0849042,VALID,20.5343,VALID,61,VALID,1.92039,
2004-10-26, 02:59:00,VALID,915.611,VALID,0,VALID,91.8963,VALID,-0.0509425,VALID,20.4789,VALID,50,VALID,1.81195,
2004-10-26, 03:00:00,VALID,915.567,VALID,0,VALID,91.6127,VALID,-0.0849042,VALID,20.4528,VALID,36,VALID,3.27834,
2004-10-26, 03:01:00,VALID,915.584,VALID,0,VALID,91.0367,VALID,-0.0849042,VALID,20.527,VALID,56,VALID,2.02539,
2004-10-26, 03:02:00,VALID,915.568,VALID,0,VALID,91.085,VALID,-0.0679233,VALID,20.5531,VALID,49,VALID,2.82014,
2004-10-26, 03:03:00,VALID,915.61,VALID,0,VALID,91.1982,VALID,-0.0339617,VALID,20.5561,VALID,55,VALID,2.81074,
2004-10-26, 03:04:00,VALID,915.613,VALID,0,VALID,91.0138,VALID,-0.0679233,VALID,20.5626,VALID,58,VALID,2.52028,
2004-10-26, 03:05:00,VALID,915.617,VALID,0,VALID,90.9795,VALID,-0.0509425,VALID,20.5661,VALID,69,VALID,2.12656,
2004-10-26, 03:06:00,VALID,915.6,VALID,0,VALID,90.757,VALID,-0.0339617,VALID,20.575,VALID,46,VALID,3.20778,
2004-10-26, 03:07:00,VALID,915.631,VALID,0,VALID,89.6583,VALID,-0.101885,VALID,20.6697,VALID,93,VALID,2.73652,
2004-10-26, 03:08:00,VALID,915.65,VALID,0,VALID,88.7885,VALID,-0.0509425,VALID,20.7696,VALID,62,VALID,1.74336,
2004-10-26, 03:09:00,VALID,915.67,VALID,0,VALID,89.3976,VALID,-0.0679233,VALID,20.8277,VALID,80,VALID,1.40968,
2004-10-26, 03:10:00,VALID,915.672,VALID,0,VALID,89.9864,VALID,-0.0679233,VALID,20.7917,VALID,80,VALID,1.53963,
2004-10-26, 03:11:00,VALID,915.686,VALID,0,VALID,90.2343,VALID,-0.0849042,VALID,20.7114,VALID,74,VALID,2.13554,
2004-10-26, 03:12:00,VALID,915.686,VALID,0,VALID,89.2603,VALID,-0.0849042,VALID,20.6891,VALID,103,VALID,2.2742,
2004-10-26, 03:13:00,VALID,915.691,VALID,0,VALID,89.1725,VALID,-0.0679233,VALID,20.779,VALID,73,VALID,1.68426,
2004-10-26, 03:14:00,VALID,915.682,VALID,0,VALID,89.6901,VALID,-0.0849042,VALID,20.7987,VALID,45,VALID,1.75999,
2004-10-26, 03:15:00,VALID,915.707,VALID,0,VALID,89.7193,VALID,0,VALID,20.7623,VALID,73,VALID,1.80799,
2004-10-26, 03:16:00,VALID,915.719,VALID,0,VALID,89.657,VALID,0.0679233,VALID,20.7357,VALID,76,VALID,1.85653,
2004-10-26, 03:17:00,VALID,915.738,VALID,0,VALID,89.9584,VALID,0,VALID,20.7325,VALID,69,VALID,1.85023,
2004-10-26, 03:18:00,VALID,915.726,VALID,0,VALID,89.8885,VALID,0.0509425,VALID,20.7166,VALID,75,VALID,1.94568,
2004-10-26, 03:19:00,VALID,915.741,VALID,0,VALID,89.6914,VALID,0.0339617,VALID,20.6964,VALID,124,VALID,1.64156,
2004-10-26, 03:20:00,VALID,915.71,VALID,0,VALID,89.8948,VALID,0.0339617,VALID,20.7128,VALID,113,VALID,1.25017,
2004-10-26, 03:21:00,VALID,915.716,VALID,0,VALID,89.6621,VALID,0.0679233,VALID,20.7255,VALID,103,VALID,1.46784,
2004-10-26, 03:22:00,VALID,915.715,VALID,0,VALID,89.9787,VALID,0.0339617,VALID,20.7422,VALID,79,VALID,0.941797,
2004-10-26, 03:23:00,VALID,915.717,VALID,0,VALID,89.4269,VALID,0.0339617,VALID,20.726,VALID,113,VALID,1.60847,
2004-10-26, 03:24:00,VALID,915.713,VALID,0,VALID,89.7677,VALID,0.0339617,VALID,20.7387,VALID,96,VALID,1.42696,
2004-10-26, 03:25:00,VALID,915.728,VALID,0,VALID,90.0093,VALID,0.0169808,VALID,20.729,VALID,113,VALID,1.03924,
2004-10-26, 03:26:00,VALID,915.714,VALID,0,VALID,90.4721,VALID,0.0339617,VALID,20.6962,VALID,87,VALID,1.34989,
2004-10-26, 03:27:00,VALID,915.719,VALID,0,VALID,90.537,VALID,0,VALID,20.6614,VALID,95,VALID,0.562686,
2004-10-26, 03:28:00,VALID,915.712,VALID,0,VALID,90.0805,VALID,0.0169808,VALID,20.6283,VALID,82,VALID,1.59876,
2004-10-26, 03:29:00,VALID,915.727,VALID,0,VALID,89.8681,VALID,0,VALID,20.7072,VALID,88,VALID,1.3418,
2004-10-26, 03:30:00,VALID,915.74,VALID,0,VALID,90.0054,VALID,-0.0339617,VALID,20.734,VALID,95,VALID,1.13791,
2004-10-26, 03:31:00,VALID,915.772,VALID,0,VALID,90.2483,VALID,-0.101885,VALID,20.7087,VALID,96,VALID,1.08203,
2004-10-26, 03:32:00,VALID,915.776,VALID,0,VALID,90.4124,VALID,-0.0679233,VALID,20.7058,VALID,94,VALID,0.59747,
2004-10-26, 03:33:00,VALID,915.782,VALID,0,VALID,90.5293,VALID,-0.101885,VALID,20.6694,VALID,120,VALID,1.02623,
2004-10-26, 03:34:00,VALID,915.788,VALID,0,VALID,90.2674,VALID,-0.101885,VALID,20.6565,VALID,90,VALID,1.38986,